Accueil
METAR-TAF:

METAR-TAF

Aéroports :

Bentonville Municipal Airport/Louise M Thaden Field

Bentonville, Arkansas, États-Unis

latitude: 36-21N, longitude: 094-13W, altitude: 395 m

Observation

Le bulletin a été fait il y a 47 minutes, à 15:56 UTC
Vent 7 kt de nord
Température 0°C
Humidité 59%
Pression 1035 hPa
Visibilité: 16.1 km
Ciel clair

METAR: KVBT 191556Z AUTO 36007KT 10SM CLR 00/M07 A3055 RMK AO2 SLP362 T00001072 FZRANO TSNO

Heure: 10:43 (16:43 UTC)


TAF: absent

Observations et prévisions météorologiques de plus de 4000 aéroports (messages METAR et TAF).

Les stations disponibles sont représentées par des disques jaunes et rouges sur la carte.

Passer la souris dessus pour voir le nom de la station.

Cliquer dessus pour voir les observations et prévisions météorologiques.

Pour changer de carte: cliquez sur les boutons verts avec une croix noire pour zoomer, sur le bouton vert avec un tiret pour effectuer un zoom arrière, ou sur les flèches vertes pour les cartes adjacentes.


METAR-TAF: